Location: Mactaquac Provincial Park
(45.9573°N, 66.8897°W)
Time: 12:30:32
(UTC-04:00)

Cosmos 1867 - Visible Passes

Search period start: 22 November 2014 00:00
Search period end: 02 December 2014 00:00
Orbit: 778 x 798 km, 65.0° (Epoch: 21 November)

Date Brightness Start Highest point End Pass type
(mag) Time Alt. Az. Time Alt. Az. Time Alt. Az.
22 Nov 4.2 04:39:03 49° SE 04:39:03 49° SE 04:42:57 10° SE visible
22 Nov 5.1 06:19:47 16° W 06:20:23 16° WSW 06:23:36 10° SW visible
22 Nov 5.3 19:15:59 10° S 19:17:34 18° SSE 19:17:34 18° SSE visible
23 Nov 5.5 04:09:18 23° SE 04:09:18 23° SE 04:11:17 10° SE visible
23 Nov 4.9 05:50:02 21° SW 05:50:02 21° SW 05:53:03 10° SSW visible
23 Nov 4.9 18:45:01 10° SSE 18:47:49 22° SE 18:47:49 22° SE visible
23 Nov 5.8 20:27:10 10° SW 20:28:32 18° SW 20:28:32 18° SW visible
24 Nov 5.2 05:20:20 19° SSW 05:20:20 19° SSW 05:22:10 10° S visible
24 Nov 5.0 18:14:19 10° SSE 18:17:55 18° ESE 18:17:58 18° ESE visible
24 Nov 4.7 19:55:27 10° SW 19:58:41 37° SW 19:58:41 37° SW visible
25 Nov 5.9 04:50:41 12° S 04:50:41 12° S 04:51:05 10° S visible
25 Nov 5.3 17:44:06 10° SE 17:46:32 13° ESE 17:48:02 12° E visible
25 Nov 3.6 19:23:51 10° SSW 19:28:45 72° S 19:28:45 72° S visible
25 Nov 6.5 21:09:09 10° W 21:09:28 11° W 21:09:28 11° W visible
26 Nov 3.5 18:52:22 10° SSW 18:57:42 62° ESE 18:58:43 52° ENE visible
26 Nov 5.8 20:37:00 10° W 20:39:26 22° WNW 20:39:26 22° WNW visible
27 Nov 3.9 18:21:01 10° S 18:26:11 47° ESE 18:28:36 28° ENE visible
27 Nov 5.0 20:04:57 10° WSW 20:09:18 34° WNW 20:09:18 34° WNW visible
28 Nov 4.3 17:49:49 10° S 17:54:41 35° ESE 17:58:24 16° ENE visible
28 Nov 4.4 19:33:00 10° WSW 19:38:11 44° NW 19:39:05 41° NNW visible
29 Nov 4.7 17:18:48 10° SSE 17:23:14 26° ESE 17:27:41 10° ENE visible
29 Nov 4.1 19:01:09 10° SW 19:06:30 57° NW 19:08:48 33° NNE visible
29 Nov 6.2 20:47:50 10° WNW 20:49:29 15° NW 20:49:29 15° NW visible
30 Nov 3.7 18:29:25 10° SW 18:34:50 73° NW 18:38:26 22° NNE visible
30 Nov 5.7 20:15:29 10° WNW 20:19:08 19° NW 20:19:08 19° NW visible
01 Dec 3.6 17:57:47 10° SSW 18:03:13 87° SE 18:08:01 14° NE visible
01 Dec 5.4 19:43:14 10° W 19:47:31 23° NW 19:48:42 22° NNW visible
